Dublin, GA

9:33 AM EST on November 21, 2017 (GMT -0500)
Dublin

Weather History for KDBN - December, 2012

Change the Weather History Date:

Wednesday, December 12, 2012

  Actual Average Record
Temperature  
Mean Temperature 45 °F -  
Max Temperature 48 °F 63 °F 82 °F (1931)
Min Temperature 42 °F 38 °F 16 °F (1962)
Degree Days  
Heating Degree Days 20    
Moisture  
Dew Point 43 °F    
Average Humidity 93    
Maximum Humidity 100    
Minimum Humidity 62    
Precipitation  
Precipitation 0.00 in - - ()
Sea Level Pressure  
Sea Level Pressure 30.18 in    
Wind  
Wind Speed 4 mph (NNE)    
Max Wind Speed 10 mph    
Max Gust Speed -    
Visibility 8 miles    
Events Rain    
Averages and records for this station are not official NWS values.
T = Trace of Precipitation, MM = Missing Value Source: NWS Daily Summary

Daily Weather History Graph

Daily Weather History Graph

Search for Another Location

Airport or City:

Trip Planner

Search our weather history database for the weather conditions in past years. The results will help you decide how hot, cold, wet, or windy it might be!

Date:

Astronomy

Dec. 12, 2012 Rise Set
Actual Time 7:27 AM EST 5:24 PM EST
Civil Twilight 6:59 AM EST 5:52 PM EST
Nautical Twilight 6:28 AM EST 6:23 PM EST
Astronomical Twilight 5:58 AM EST 6:53 PM EST
Moon 6:31 AM EST (12/12) 4:59 PM EST (12/12)
Length of Visible Light 10h 52m
Length of Day
9h 57m
Waning Crescent, 1% of the Moon is Illuminated
Dec 12
Waning Crescent
Dec 13
New
Dec 20
First Quarter
Dec 28
Full
Jan 4
Last Quarter

Hourly Weather History & Observations

Time (EST) Temp. Windchill Dew Point Humidity Pressure Visibility Wind Dir Wind Speed Gust Speed Precip Events Conditions
12:15 AM 48.2 °F - 35.6 °F 62% 30.16 in 10.0 mi NW 4.6 mph - N/A   Overcast
12:35 AM 48.2 °F - 35.6 °F 62% 30.14 in 10.0 mi Calm Calm - N/A   Overcast
1:15 AM 46.4 °F 43.5 °F 35.6 °F 66% 30.16 in 10.0 mi NNW 5.8 mph - N/A   Overcast
1:35 AM 46.4 °F 43.5 °F 35.6 °F 66% 30.16 in 10.0 mi North 5.8 mph - N/A   Overcast
1:55 AM 46.4 °F 45.2 °F 33.8 °F 62% 30.15 in 10.0 mi North 3.5 mph - N/A   Overcast
2:15 AM 46.4 °F 43.5 °F 35.6 °F 66% 30.17 in 10.0 mi NW 5.8 mph - N/A   Overcast
2:35 AM 46.4 °F - 33.8 °F 62% 30.16 in 10.0 mi Calm Calm - N/A   Overcast
2:55 AM 46.4 °F 44.3 °F 33.8 °F 62% 30.16 in 10.0 mi NNW 4.6 mph - N/A   Overcast
3:15 AM 46.4 °F 43.5 °F 35.6 °F 66% 30.15 in 10.0 mi NNW 5.8 mph - N/A   Mostly Cloudy
3:35 AM 46.4 °F 43.5 °F 35.6 °F 66% 30.16 in 10.0 mi NNW 5.8 mph - N/A   Mostly Cloudy
3:55 AM 46.4 °F 42.9 °F 35.6 °F 66% 30.16 in 10.0 mi NNW 6.9 mph - N/A Rain Light Rain
4:15 AM 44.6 °F 43.1 °F 35.6 °F 71% 30.14 in 10.0 mi North 3.5 mph - N/A Rain Light Rain
4:35 AM 44.6 °F 42.2 °F 39.2 °F 81% 30.12 in 10.0 mi NE 4.6 mph - N/A Rain Light Rain
4:55 AM 42.8 °F 40.1 °F 41.0 °F 93% 30.11 in 10.0 mi NNE 4.6 mph - N/A Rain Light Rain
5:15 AM 42.8 °F 40.1 °F 42.8 °F 100% 30.11 in 10.0 mi North 4.6 mph - N/A Rain Light Rain
5:35 AM 42.8 °F 41.1 °F 42.8 °F 100% 30.12 in 10.0 mi NE 3.5 mph - N/A Rain Light Rain
5:55 AM 42.8 °F 41.1 °F 42.8 °F 100% 30.12 in 10.0 mi NE 3.5 mph - N/A   Mostly Cloudy
6:15 AM 42.8 °F 41.1 °F 42.8 °F 100% 30.14 in 10.0 mi North 3.5 mph - N/A   Mostly Cloudy
6:35 AM 42.8 °F - 42.8 °F 100% 30.14 in 10.0 mi Calm Calm - N/A   Mostly Cloudy
7:15 AM 42.8 °F - 42.8 °F 100% 30.16 in 10.0 mi Calm Calm - N/A   Overcast
7:35 AM 42.8 °F 41.1 °F 42.8 °F 100% 30.17 in 7.0 mi NNW 3.5 mph - N/A   Scattered Clouds
7:55 AM 42.8 °F 41.1 °F 42.8 °F 100% 30.17 in 7.0 mi NNW 3.5 mph - N/A   Scattered Clouds
8:15 AM 42.8 °F 41.1 °F 42.8 °F 100% 30.18 in 7.0 mi North 3.5 mph - N/A   Mostly Cloudy
8:35 AM 44.6 °F - 44.6 °F 100% 30.19 in 7.0 mi Calm Calm - N/A   Overcast
8:55 AM 44.6 °F - 44.6 °F 100% 30.20 in 7.0 mi Calm Calm - N/A   Overcast
9:15 AM 44.6 °F - 44.6 °F 100% 30.20 in 10.0 mi Calm Calm - N/A   Overcast
9:35 AM 44.6 °F 42.2 °F 44.6 °F 100% 30.19 in 7.0 mi NNE 4.6 mph - N/A Rain Light Rain
9:55 AM 44.6 °F 43.1 °F 44.6 °F 100% 30.20 in 7.0 mi NNE 3.5 mph - N/A Rain Light Rain
10:15 AM 44.6 °F 43.1 °F 44.6 °F 100% 30.20 in 7.0 mi NE 3.5 mph - N/A Rain Light Rain
10:35 AM 44.6 °F 42.2 °F 44.6 °F 100% 30.22 in 4.0 mi North 4.6 mph - N/A Rain Rain
10:55 AM 44.6 °F 41.4 °F 44.6 °F 100% 30.21 in 5.0 mi NNE 5.8 mph - N/A Rain Light Rain
11:15 AM 44.6 °F 43.1 °F 44.6 °F 100% 30.21 in 5.0 mi NE 3.5 mph - N/A Rain Light Rain
11:35 AM 46.4 °F 43.5 °F 46.4 °F 100% 30.20 in 5.0 mi NE 5.8 mph - N/A Rain Light Rain
11:55 AM 46.4 °F 44.3 °F 46.4 °F 100% 30.20 in 5.0 mi ENE 4.6 mph - N/A Rain Rain
12:15 PM 46.4 °F - 46.4 °F 100% 30.19 in 5.0 mi Calm Calm - N/A Rain Light Rain
12:35 PM 46.4 °F 43.5 °F 46.4 °F 100% 30.18 in 5.0 mi ENE 5.8 mph - N/A Rain Light Rain
12:55 PM 48.2 °F - 48.2 °F 100% 30.18 in 5.0 mi NE 3.5 mph - N/A Rain Rain
1:15 PM 48.2 °F - 48.2 °F 100% 30.21 in 7.0 mi NW 5.8 mph - N/A Rain Rain
1:35 PM 48.2 °F - 48.2 °F 100% 30.19 in 7.0 mi NNE 3.5 mph - N/A Rain Light Rain
1:55 PM 48.2 °F - 48.2 °F 100% 30.17 in 10.0 mi NNE 5.8 mph - N/A   Light Drizzle
2:15 PM 46.4 °F 42.4 °F 46.4 °F 100% 30.15 in 10.0 mi ENE 8.1 mph - N/A   Overcast
2:35 PM 46.4 °F 42.4 °F 46.4 °F 100% 30.15 in 10.0 mi NE 8.1 mph - N/A   Overcast
2:55 PM 46.4 °F 42.4 °F 46.4 °F 100% 30.16 in 10.0 mi NE 8.1 mph - N/A Rain Rain
3:15 PM 46.4 °F 44.3 °F 46.4 °F 100% 30.18 in 10.0 mi NNE 4.6 mph - N/A Rain Light Rain
3:35 PM 46.4 °F 42.9 °F 46.4 °F 100% 30.18 in 10.0 mi NNE 6.9 mph - N/A Rain Light Rain
3:55 PM 46.4 °F 41.5 °F 46.4 °F 100% 30.17 in 7.0 mi NE 10.4 mph - N/A Rain Rain
4:15 PM 46.4 °F 41.9 °F 46.4 °F 100% 30.17 in 10.0 mi ENE 9.2 mph - N/A Rain Light Rain
4:35 PM 46.4 °F 44.3 °F 46.4 °F 100% 30.19 in 10.0 mi NNE 4.6 mph - N/A   Overcast
4:55 PM 46.4 °F 42.9 °F 46.4 °F 100% 30.17 in 10.0 mi NNE 6.9 mph - N/A   Overcast
5:15 PM 46.4 °F 42.4 °F 46.4 °F 100% 30.16 in 10.0 mi NNE 8.1 mph - N/A   Overcast
5:35 PM 46.4 °F 42.9 °F 46.4 °F 100% 30.18 in 10.0 mi NNE 6.9 mph - N/A   Overcast
5:55 PM 46.4 °F 42.9 °F 46.4 °F 100% 30.19 in 10.0 mi NNE 6.9 mph - N/A   Overcast
6:15 PM 46.4 °F 43.5 °F 46.4 °F 100% 30.19 in 10.0 mi NNE 5.8 mph - N/A Rain Rain
6:35 PM 44.6 °F 41.4 °F 44.6 °F 100% 30.19 in 10.0 mi NNE 5.8 mph - N/A Rain Light Rain
7:35 PM 44.6 °F 41.4 °F 44.6 °F 100% 30.18 in 4.0 mi NNE 5.8 mph - N/A Rain Light Rain
7:55 PM 44.6 °F 41.4 °F 44.6 °F 100% 30.18 in 4.0 mi North 5.8 mph - N/A Rain Light Rain
8:15 PM 46.4 °F 42.9 °F 46.4 °F 100% 30.21 in 5.0 mi NNW 6.9 mph - N/A Rain Light Rain
8:35 PM 46.4 °F 43.5 °F 46.4 °F 100% 30.20 in 4.0 mi NE 5.8 mph - N/A Rain Rain
8:55 PM 46.4 °F 42.9 °F 46.4 °F 100% 30.21 in 4.0 mi NNE 6.9 mph - N/A Rain Heavy Rain
9:15 PM 44.6 °F 41.4 °F 44.6 °F 100% 30.22 in 7.0 mi North 5.8 mph - N/A Rain Rain
9:35 PM 44.6 °F 41.4 °F 44.6 °F 100% 30.23 in 7.0 mi North 5.8 mph - N/A Rain Rain
9:55 PM 44.6 °F 40.7 °F 44.6 °F 100% 30.23 in 10.0 mi NNE 6.9 mph - N/A Rain Light Rain
10:15 PM 44.6 °F 40.7 °F 44.6 °F 100% 30.24 in 10.0 mi North 6.9 mph - N/A Rain Rain
10:35 PM 44.6 °F 42.2 °F 44.6 °F 100% 30.25 in 10.0 mi North 4.6 mph - N/A Rain Light Rain
10:55 PM 44.6 °F 42.2 °F 44.6 °F 100% 30.25 in 10.0 mi NNE 4.6 mph - N/A Rain Light Rain
11:15 PM 44.6 °F 42.2 °F 44.6 °F 100% 30.26 in 10.0 mi North 4.6 mph - N/A Rain Light Rain
11:35 PM 44.6 °F 40.2 °F 44.6 °F 100% 30.24 in 10.0 mi NNE 8.1 mph - N/A   Overcast
11:55 PM 44.6 °F 40.7 °F 44.6 °F 100% 30.24 in 10.0 mi NNE 6.9 mph - N/A   Overcast